Current weather by "City, St" or "zip code"  
 
Advertise Here

Current Conditions: North Adams Harriman-and-West Airport, MA

Fog/Mist


62.0 F

Last Updated on Jul 27 2021, 1:52 am EDT
Humidity: 90%
Wind Speed: N 0.0 mph
Barometer 29.95 in
Dewpoint: 59.0 F
Visibility: 6.00 mi
Precip: --
Heat Index: NA
Wind Chill: NA
Current conditions at:

North Adams Harriman-and-West Airport, MA (KAQW)

Lat: 42.69731 Lon: 73.16955

Local Radar Image active severe weather and emergency alerts image image weather storm and storm spotter reports image weather observation monitoring service image
Local
Radar
Active
Alerts
Storm Reports Obs
Monitoring

Sign-up For Email & Text Message Weather Alert Notification Services


Advertise Here

Observation History for North Adams Harriman-and-West Airport, MA


Time Wind
(mph)
Vis
(mi)
Weather Precip (in) Temperature (F) Relative
Humidity
Wind
Chill
(F)
Heat
Index
(F)
Pressure
Air Dwpt altimeter
(in)
sea level
(mb)
Rmks
1:52 am EDT N 0.0 6.00 Fog/Mist -- 62.0 59.0 90% NA NA 29.95 1013.7
12:52 am EDT E 3.5 7.00 A Few Clouds -- 63.0 60.1 90% NA NA 29.95 1013.8
10:52 pm EDT N 0.0 8.00 Fair -- 65.0 61.0 87% NA NA 29.94 1013.4
9:52 pm EDT N 0.0 9.00 Fair -- 67.0 62.1 84% NA NA 29.94 1013.6
8:52 pm EDT N 0.0 7.00 Fair -- 69.0 63.0 81% NA NA 29.92 1012.9
7:52 pm EDT N 0.0 8.00 Fair -- 75.0 66.9 76% NA NA 29.89 1012.0
6:52 pm EDT N 0.0 9.00 Fair -- 81.0 64.0 57% NA 83 29.87 1011.3
5:52 pm EDT W 9.2 10.00 Partly Cloudy -- 83.0 60.1 46% NA 83 29.88 1011.5
4:52 pm EDT W 6.9 8.00 Mostly Cloudy -- 84.0 60.1 44% NA 84 29.89 1011.7
3:52 pm EDT W 9.2 5.00 Mostly Cloudy with Haze -- 83.0 62.1 49% NA 84 29.89 1012.0
2:52 pm EDT W 10.4 4.00 Fair with Haze -- 83.0 62.1 49% NA 84 29.90 1012.2
1:52 pm EDT N 8.1 4.00 A Few Clouds with Haze -- 82.0 64.0 55% NA 83 29.91 1012.5
12:52 pm EDT N 5.8 3.00 A Few Clouds with Haze -- 81.0 63.0 54% NA 82 29.91 1012.5
11:52 am EDT N 4.6 4.00 A Few Clouds with Haze -- 80.0 64.0 58% NA 82 29.91 1012.4
10:52 am EDT 5.8 4.00 A Few Clouds with Haze -- 78.0 64.0 62% NA NA 29.92 1012.7
9:52 am EDT W 4.6 7.00 Mostly Cloudy -- 75.0 64.9 71% NA NA 29.90 1012.3
8:52 am EDT N 0.0 4.00 Fog/Mist -- 67.0 66.0 97% NA NA 29.92 1012.9
7:52 am EDT N 0.0 0.75 Fog/Mist -- 67.0 64.9 93% NA NA 29.91 1012.7
6:52 am EDT N 0.0 1.00 Fog/Mist -- 66.0 64.0 93% NA NA 29.91 1012.5
5:52 am EDT N 0.0 0.50 Fog -- 66.0 64.9 96% NA NA 29.90 1012.2
4:52 am EDT N 0.0 0.50 Fog -- 67.0 64.9 93% NA NA 29.90 1012.2
3:48 am EDT N 0.0 1.25 Fog/Mist -- 67.0 64.9 93% NA NA 29.90 1012.2
2:52 am EDT SW 3.5 3.00 Fog/Mist -- 67.0 64.9 93% NA NA 29.90 1012.3

Regional Weather Observation


North Adams Harriman-and-West Airport, MA (KAQW)

Fog/Mist
62.0 F

Albany International Airport, NY (KALB)

Fair
64.0 F

Schenectady Airport, NY (KSCH)

Fair
73.0 F

Pittsfield Municipal Airport, MA (KPSF)

Fair
60.0 F

Glens Falls, Floyd Bennett Memorial Airport, NY (KGFL)

Fair
60.0 F

Rutland-Southern Vermont Regional Airport, VT (KRUT)

Fair
61.0 F
Advertise Here

Advertise Here